Date String (YYYY-MM-DD hh:mm:ss) UTC,Instrument flags,Ambient pressure (hPa),Sample flow (lpm),Bypass flow (lpm),Sample temperature (°C),Ambient temperature (°C),ASC tube jacket temperature (°C),LED temperature (°C),Box temperature (°C),Sample RH (%),Span deviation,Mass concentration (μg/m³),Mass concentration (μg/m³),Mass concentration (μg/m³)
DateTimeUTC,F1_M11,P_M11,Q1_M11,Q2_M11,T1_M11,T2_M11,T3_M11,T4_M11,T5_M11,U1_M11,ZSPAN_M11,X0_M11,X2_M11,X1_M11
2022-08-27 16:00:00,,0824.4,5.00,0.00,29.9,28.8,00.0,38.6,31.8,25.9,0000.0,0012.16,0004.71,0004.03
2022-08-27 16:01:00,,0824.4,5.00,0.00,30.0,28.8,00.0,38.6,31.9,27.7,0000.0,0012.87,0004.72,0004.03
2022-08-27 16:02:00,,0824.4,5.00,0.00,30.0,28.0,00.0,38.6,31.9,28.7,0000.0,0012.84,0004.69,0004.03
2022-08-27 16:03:00,,0824.4,5.01,0.00,30.0,27.0,00.0,38.6,31.7,29.2,0000.0,0012.37,0004.65,0004.04
2022-08-27 16:04:00,,0824.4,4.99,0.00,29.9,26.9,00.0,38.6,31.7,29.0,0000.0,0012.28,0004.66,0004.04
2022-08-27 16:05:00,,0824.4,5.01,0.00,29.8,27.1,00.0,38.5,31.6,28.6,0000.0,0011.84,0004.64,0004.04
2022-08-27 16:06:00,,0824.4,5.00,0.00,29.8,27.4,00.0,38.5,31.5,28.1,0000.0,0011.88,0004.67,0004.06
2022-08-27 16:07:00,,0824.3,5.00,0.00,29.8,27.7,00.0,38.5,31.5,28.4,0000.0,0011.07,0004.70,0004.07
2022-08-27 16:08:00,,0824.4,5.00,0.00,29.8,28.0,00.0,38.5,31.6,28.6,0000.0,0010.80,0004.71,0004.07
2022-08-27 16:09:00,,0824.3,4.99,0.00,29.8,28.2,00.0,38.5,31.6,28.1,0000.0,0011.01,0004.72,0004.08
2022-08-27 16:10:00,,0824.4,5.02,0.00,29.8,28.4,00.0,38.5,31.7,27.6,0000.0,0011.27,0004.77,0004.08
2022-08-27 16:11:00,,0824.4,5.00,0.00,29.8,28.5,00.0,38.5,31.7,27.0,0000.0,0011.47,0004.79,0004.08
2022-08-27 16:12:00,,0824.4,5.00,0.00,29.9,28.6,00.0,38.5,31.7,25.7,0000.0,0011.84,0004.81,0004.09
2022-08-27 16:13:00,,0824.4,5.00,0.00,29.9,28.8,00.0,38.5,31.8,25.8,0000.0,0011.72,0004.83,0004.10
2022-08-27 16:14:00,,0824.5,5.00,0.00,29.9,28.9,00.0,38.6,31.8,27.1,0000.0,0011.93,0004.89,0004.12
2022-08-27 16:15:00,,0824.4,4.99,0.00,29.9,28.4,00.0,38.6,31.9,27.4,0000.0,0012.18,0004.87,0004.14
2022-08-27 16:16:00,,0824.5,5.00,0.00,29.9,27.3,00.0,38.6,31.7,24.9,0000.0,0011.99,0004.88,0004.16
2022-08-27 16:17:00,,0824.4,5.01,0.00,29.9,26.8,00.0,38.5,31.7,23.3,0000.0,0012.20,0004.90,0004.17
2022-08-27 16:18:00,,0824.4,5.00,0.00,29.8,27.0,00.0,38.5,31.6,24.1,0000.0,0012.61,0004.88,0004.18
2022-08-27 16:19:00,,0824.4,5.01,0.00,29.8,27.3,00.0,38.5,31.5,25.8,0000.0,0012.33,0004.89,0004.20
2022-08-27 16:20:00,,0824.4,5.00,0.00,29.8,27.6,00.0,38.4,31.5,26.8,0000.0,0012.14,0004.90,0004.22
2022-08-27 16:21:00,,0824.4,5.00,0.00,29.7,27.9,00.0,38.4,31.5,26.6,0000.0,0012.42,0004.92,0004.24
2022-08-27 16:22:00,,0824.5,4.99,0.00,29.8,28.1,00.0,38.5,31.6,24.6,0000.0,0012.64,0004.95,0004.26
2022-08-27 16:23:00,,0824.4,5.01,0.00,29.8,28.3,00.0,38.5,31.6,25.6,0000.0,0011.94,0004.96,0004.28
2022-08-27 16:24:00,,0824.5,4.99,0.00,29.8,28.5,00.0,38.5,31.7,25.7,0000.0,0011.49,0004.95,0004.31
2022-08-27 16:25:00,,0824.5,4.99,0.00,29.8,28.6,00.0,38.5,31.7,24.1,0000.0,0011.67,0004.94,0004.32
2022-08-27 16:26:00,,0824.5,4.99,0.00,29.8,28.7,00.0,38.5,31.8,23.0,0000.0,0011.00,0004.94,0004.32
2022-08-27 16:27:00,,0824.4,5.01,0.00,29.9,28.9,00.0,38.5,31.8,20.5,0000.0,0011.30,0004.91,0004.33
2022-08-27 16:28:00,,0824.4,5.00,0.00,29.9,28.7,00.0,38.6,31.9,20.6,0000.0,0011.11,0004.89,0004.34
2022-08-27 16:29:00,,0824.4,5.00,0.00,29.9,27.7,00.0,38.5,31.8,21.5,0000.0,0011.00,0004.90,0004.35
2022-08-27 16:30:00,,0824.3,5.02,0.00,29.9,26.9,00.0,38.5,31.7,22.8,0000.0,0010.93,0004.91,0004.36
2022-08-27 16:31:00,,0824.4,4.99,0.00,29.8,27.0,00.0,38.5,31.6,23.2,0000.0,0010.87,0004.92,0004.37
2022-08-27 16:32:00,,0824.4,5.00,0.00,29.8,27.3,00.0,38.4,31.5,23.3,0000.0,0010.25,0004.90,0004.37
2022-08-27 16:33:00,,0824.4,5.00,0.00,29.7,27.6,00.0,38.4,31.5,22.4,0000.0,0010.06,0004.91,0004.38
2022-08-27 16:34:00,,0824.4,5.00,0.00,29.7,27.9,00.0,38.4,31.5,20.4,0000.0,0010.43,0004.93,0004.39
2022-08-27 16:35:00,,0824.4,5.00,0.00,29.7,28.1,00.0,38.4,31.6,19.7,0000.0,0010.28,0004.94,0004.39
2022-08-27 16:36:00,,0824.4,5.00,0.00,29.8,28.3,00.0,38.4,31.6,20.0,0000.0,0010.88,0004.97,0004.40
2022-08-27 16:37:00,,0824.4,5.01,0.00,29.8,28.4,00.0,38.4,31.7,19.3,0000.0,0011.03,0004.99,0004.42
2022-08-27 16:38:00,,0824.4,4.99,0.00,29.8,28.6,00.0,38.5,31.7,19.9,0000.0,0011.74,0005.02,0004.44
2022-08-27 16:39:00,,0824.3,5.00,0.00,29.8,28.7,00.0,38.5,31.7,21.3,0000.0,0011.62,0005.03,0004.44
2022-08-27 16:40:00,,0824.4,5.00,0.00,29.9,28.8,00.0,38.5,31.8,21.7,0000.0,0011.23,0005.04,0004.44
2022-08-27 16:41:00,,0824.4,5.00,0.00,29.9,28.6,00.0,38.5,31.8,21.7,0000.0,0011.42,0005.07,0004.45
2022-08-27 16:42:00,,0824.4,5.00,0.00,29.9,27.4,00.0,38.5,31.7,21.4,0000.0,0011.48,0005.06,0004.45
2022-08-27 16:43:00,,0824.3,5.00,0.00,29.8,26.8,00.0,38.5,31.6,20.3,0000.0,0011.45,0005.04,0004.44
2022-08-27 16:44:00,,0824.3,5.00,0.00,29.8,27.1,00.0,38.4,31.6,19.8,0000.0,0010.88,0005.00,0004.45
2022-08-27 16:45:00,,0824.2,4.99,0.00,29.7,27.3,00.0,38.4,31.5,20.1,0000.0,0010.63,0004.99,0004.46
2022-08-27 16:46:00,,0824.2,5.01,0.00,29.7,27.6,00.0,38.4,31.5,20.4,0000.0,0010.60,0004.99,0004.46
2022-08-27 16:47:00,,0824.2,4.99,0.00,29.7,27.9,00.0,38.4,31.5,20.7,0000.0,0009.58,0004.94,0004.46
2022-08-27 16:48:00,,0824.2,5.01,0.00,29.7,28.1,00.0,38.4,31.6,20.8,0000.0,0010.03,0004.95,0004.46
2022-08-27 16:49:00,,0824.2,5.00,0.00,29.7,28.3,00.0,38.4,31.6,21.3,0000.0,0009.10,0004.95,0004.46
2022-08-27 16:50:00,,0824.2,5.00,0.00,29.8,28.5,00.0,38.4,31.7,20.9,0000.0,0009.72,0004.95,0004.48
2022-08-27 16:51:00,,0824.3,4.99,0.00,29.8,28.6,00.0,38.5,31.7,20.1,0000.0,0010.46,0004.96,0004.48
2022-08-27 16:52:00,,0824.4,5.00,0.00,29.8,28.7,00.0,38.5,31.7,20.5,0000.0,0011.00,0004.95,0004.48
2022-08-27 16:53:00,,0824.2,5.01,0.00,29.9,28.8,00.0,38.5,31.8,20.3,0000.0,0011.01,0004.95,0004.49
2022-08-27 16:54:00,,0824.3,4.99,0.00,29.9,28.3,00.0,38.5,31.8,20.0,0000.0,0011.13,0004.96,0004.50
2022-08-27 16:55:00,,0824.2,5.00,0.00,29.9,27.1,00.0,38.5,31.7,20.1,0000.0,0011.26,0004.97,0004.50
2022-08-27 16:56:00,,0824.2,5.01,0.00,29.8,26.8,00.0,38.4,31.6,20.1,0000.0,0011.11,0004.98,0004.50
2022-08-27 16:57:00,,0824.2,5.00,0.00,29.8,27.1,00.0,38.4,31.5,20.1,0000.0,0011.15,0005.02,0004.50
2022-08-27 16:58:00,,0824.3,4.99,0.00,29.7,27.4,00.0,38.4,31.5,20.5,0000.0,0011.18,0005.02,0004.49
2022-08-27 16:59:00,,0824.2,5.00,0.00,29.7,27.7,00.0,38.4,31.5,20.1,0000.0,0010.87,0004.99,0004.48
